Location: *
(43.4667°N, 11.6833°E)
Time: 09:23:56
(UTC+00:00)

BREEZE-M DEB (TANK) - Pass Details

Date: 19 July 2019
Orbit: 302 x 15411 km, 49.3° (Epoch: 18 August)

Event Time Altitude Azimuth Distance (km) Brightness Sun altitude
Rises 21:04:17 0° 273° (W) 2,503 6.7 -18.6°
Reaches altitude 10° 21:06:45 10° 288° (WNW) 1,276 5.4 -18.9°
Maximum altitude 21:08:45 25° 350° (N) 668 4.0 -19.1°
Drops below altitude 10° 21:10:45 10° 52° (NE) 1,277 4.8 -19.3°
Enters shadow 21:10:52 - 53° (NE) 1,328 4.8 -19.3°
